Date,TemperatureHighF,TemperatureAvgF,TemperatureLowF,DewpointHighF,DewpointAvgF,DewpointLowF,HumidityHigh,HumidityAvg,HumidityLow,PressureMaxIn,PressureMinIn,WindSpeedMaxMPH,WindSpeedAvgMPH,GustSpeedMaxMPH,PrecipitationSumIn
2013-1-2,30.7,28.5,23.6,18.1,15.6,12.7,65,58,51,30.10,29.93,9,6,21,0.00
2013-1-3,29.9,21.8,14.0,20.1,8.5,2.4,67,56,40,30.17,30.05,9,5,22,0.00
2013-1-4,39.4,35.4,29.1,30.2,25.3,20.2,74,66,53,30.05,29.89,11,6,26,0.00
2013-1-5,43.1,35.4,24.0,27.4,24.6,21.0,89,65,48,30.30,29.92,10,5,24,0.00
2013-1-6,42.6,34.8,24.2,37.0,31.3,21.2,93,87,79,30.25,29.98,7,2,17,0.05
2013-1-7,42.7,37.4,26.6,34.0,30.1,24.8,95,75,56,30.34,30.00,7,4,14,0.00
2013-1-9,49.9,45.3,28.8,45.6,40.5,27.3,95,84,74,30.43,30.06,9,4,26,0.00
2013-1-10,46.5,43.0,36.9,39.1,28.8,25.5,80,58,45,30.54,30.13,11,6,22,0.00
2013-1-11,43.6,37.2,27.3,39.3,31.3,24.1,94,80,64,30.54,30.24,4,1,10,0.20
2013-1-12,46.0,43.0,40.2,44.6,41.6,38.6,96,95,93,30.24,30.13,3,1,7,0.06
2013-1-13,53.2,48.1,43.8,52.4,46.9,42.7,97,96,92,30.20,30.07,4,1,11,0.03
2013-1-14,55.4,51.5,44.8,53.9,47.7,34.4,97,88,59,30.26,29.98,8,3,20,0.00
2013-1-15,44.6,39.3,35.8,37.7,35.0,31.6,93,85,70,30.32,30.21,6,2,12,0.21
2013-1-16,41.4,39.0,36.8,40.1,37.2,32.6,96,93,78,30.25,29.73,7,2,12,0.64
2013-1-17,43.2,39.9,35.8,38.0,32.0,24.8,92,74,61,30.10,29.89,9,4,18,0.00
2013-1-18,35.6,24.6,11.0,27.8,10.5,-0.8,93,58,32,30.52,30.02,10,5,21,0.00
2013-1-19,48.9,41.9,11.0,44.9,33.3,6.3,87,72,65,30.47,29.99,9,5,26,0.02
2013-1-20,52.4,46.8,32.3,45.9,36.2,14.9,88,67,41,29.99,29.66,10,6,25,0.00
2013-1-21,32.3,29.2,25.8,28.9,17.0,9.5,93,63,43,30.14,29.79,8,3,20,0.00
2013-1-22,29.4,23.9,17.2,27.6,10.2,-3.0,93,59,33,30.11,29.76,11,6,24,0.01
2013-1-23,18.4,15.1,12.8,4.0,-0.8,-5.0,59,49,43,30.20,30.09,10,7,0,0.00
2013-1-24,20.1,18.1,15.0,-0.4,-2.1,-3.8,45,40,35,30.26,30.11,12,9,25,0.00
2013-1-25,24.0,16.7,13.8,6.7,-0.4,-5.1,53,46,41,30.35,30.22,10,7,26,0.00
2013-1-26,24.7,24.7,24.7,8.7,8.7,8.7,50,50,50,30.09,30.09,5,5,5,0.00
2013-1-27,30.3,28.2,26.0,8.4,7.0,5.1,45,40,34,30.50,30.39,6,4,14,0.00
2013-1-28,35.9,27.3,13.8,32.5,19.1,6.2,95,73,43,30.50,30.01,5,1,10,0.08
2013-1-29,38.2,34.7,32.8,35.2,32.9,31.3,95,93,88,30.18,30.00,4,2,8,0.08
2013-1-30,55.5,52.6,44.3,53.6,50.9,42.7,96,94,90,30.01,29.59,7,5,18,0.01
2013-1-31,56.9,47.3,34.3,55.4,38.3,13.6,95,72,42,29.67,29.14,13,9,37,0.39